Location: ??????
(36.0418°N, 43.6351°E)
Time: 04:21:29
(UTC+00:00)

YAOGAN 6 - Pass Details

Date: 07 March 2021
Orbit: 464 x 502 km, 97.0° (Epoch: 20 April)

Event Time Altitude Azimuth Distance (km) Brightness Sun altitude
Rises 02:42:58 0° 11° (N) 2,518 6.4 -9.9°
Reaches altitude 10° 02:45:02 10° 11° (N) 1,633 5.4 -9.4°
Maximum altitude 02:48:32 90° 23° (NNE) 471 2.5 -8.7°
Drops below altitude 10° 02:51:59 10° 192° (SSW) 1,610 5.1 -8.0°
Sets 02:54:01 0° 192° (SSW) 2,480 6.0 -7.6°
